Location: Ferma
(41.9500°N, 44.5167°E)
Time: 04:48:12
(UTC+00:00)

NOSS 2-3 (D) - Pass Details

Date: 29 May 2022
Orbit: 536 x 1674 km, 63.3° (Epoch: 02 June)

Event Time Altitude Azimuth Distance (km) Brightness Sun altitude
Rises 18:26:58 0° 330° (NNW) 3,370 9.1 -17.2°
Reaches altitude 10° 18:29:26 10° 340° (NNW) 2,588 7.9 -17.5°
Maximum altitude 18:34:58 34° 45° (NE) 1,723 5.9 -18.1°
Enters shadow 18:40:41 15° 102° (ESE) 2,922 6.6 -18.7°
